User: anonymous   Login
Location: Unspecified
(0.0000°N, 0.0000°E)
Time: 00:58:21
(UTC+00:00)
Language:

STARLINK-5509 - Orbit

View from above orbital plane
View from above orbital plane
View from above satellite
View from above satellite

Ground track
Ground track

The orbit is defined by the following mean orbital elements,

1 57263U          26145.49634980 +.00000000 +00000-0 +14033-4 0 00002
2 57263  43.0026 316.8206 0000917 257.3238 102.7511 15.27576628    09
Epoch (UTC): 25 May 2026 11:54:44
Eccentricity: 0.0000917
inclination: 43.0026°
perigee height: 482 km
apogee height: 484 km
right ascension of ascending node: 316.8206°
argument of perigee: 257.3238°
revolutions per day: 15.27576628
mean anomaly at epoch: 102.7511°

The dashed part of the orbit path shows where the satellite is in the earth's shadow,  

DLR